Lynchburg, VA

8:27 PM EDT on August 25, 2016 (GMT -0400)
Lynchburg Regional-Glenn

Weather History for KLYH - October, 2010

Change the Weather History Date:

Saturday, October 2, 2010

  Actual Average Record
Temperature  
Mean Temperature 57 °F 61 °F  
Max Temperature 70 °F 72 °F 88 °F (1905)
Min Temperature 44 °F 49 °F 32 °F (1899)
Degree Days  
Heating Degree Days 8 5  
Month to date heating degree days 9 10  
Since 1 July heating degree days 25 71  
Cooling Degree Days 0 1  
Month to date cooling degree days 0 2  
Year to date cooling degree days 1453 1018  
Growing Degree Days 7 (Base 50)    
Moisture  
Dew Point 46 °F    
Average Humidity 71    
Maximum Humidity 100    
Minimum Humidity 42    
Precipitation  
Precipitation 0.00 in 0.09 in 2.25 in (1929)
Month to date precipitation 0.00 0.19  
Year to date precipitation 39.10 32.00  
Snow  
Snow 0.00 in - - ()
Month to date snowfall 0.0  
Since 1 July snowfall 0.0  
Since 1 September snowfall 0.0  
Snow Depth 0.00 in    
Sea Level Pressure  
Sea Level Pressure 29.99 in    
Wind  
Wind Speed 2 mph (NNE)    
Max Wind Speed 12 mph    
Max Gust Speed 16 mph    
Visibility 10 miles    
Events      
T = Trace of Precipitation, MM = Missing Value Source: NWS Daily Summary

Daily Weather History Graph

Daily Weather History Graph

Search for Another Location

Airport or City:

Trip Planner

Search our weather history database for the weather conditions in past years. The results will help you decide how hot, cold, wet, or windy it might be!

Date:

Astronomy

Oct. 02, 2010 Rise Set
Actual Time 7:13 AM EDT 6:58 PM EDT
Civil Twilight 6:47 AM EDT 7:24 PM EDT
Nautical Twilight 6:16 AM EDT 7:54 PM EDT
Astronomical Twilight 5:46 AM EDT 8:25 PM EDT
Moon 1:03 AM EDT (10/2) 3:37 PM EDT (10/2)
Length of Visible Light 12h 37m
Length of Day
11h 45m
Waning Crescent, 33% of the Moon is Illuminated
Oct 2
Waning Crescent
Oct 7
New
Oct 14
First Quarter
Oct 22
Full
Oct 30
Last Quarter

Hourly Weather History & Observations

Time (EDT) Temp. Windchill Dew Point Humidity Pressure Visibility Wind Dir Wind Speed Gust Speed Precip Events Conditions
12:54 AM 54.0 °F - 44.1 °F 69% 29.95 in 10.0 mi North 4.6 mph - N/A   Clear
1:54 AM 48.0 °F - 45.0 °F 89% 29.96 in 10.0 mi North 3.5 mph - N/A   Clear
2:54 AM 46.9 °F - 45.0 °F 93% 29.96 in 10.0 mi Calm Calm - N/A   Clear
3:54 AM 46.0 °F 44.8 °F 44.1 °F 93% 29.96 in 10.0 mi North 3.5 mph - N/A   Clear
4:54 AM 48.2 °F - 44.6 °F 87% 29.99 in 10.0 mi Calm Calm - N/A   Clear
5:54 AM 46.9 °F - 44.1 °F 90% 30.00 in 10.0 mi Calm Calm - N/A   Clear
6:54 AM 46.0 °F - 44.1 °F 93% 30.02 in 10.0 mi Calm Calm - N/A   Clear
7:54 AM 48.0 °F - 46.0 °F 93% 30.04 in 10.0 mi Calm Calm - N/A   Clear
8:54 AM 55.9 °F - 46.9 °F 72% 30.04 in 10.0 mi Calm Calm - N/A   Clear
9:54 AM 57.9 °F - 45.0 °F 62% 30.05 in 10.0 mi East 11.5 mph 16.1 mph N/A   Clear
10:54 AM 61.0 °F - 46.0 °F 58% 30.04 in 10.0 mi NE 6.9 mph - N/A   Clear
11:54 AM 62.1 °F - 45.0 °F 53% 30.02 in 10.0 mi Variable 6.9 mph - N/A   Clear
12:54 PM 64.9 °F - 45.0 °F 48% 30.01 in 10.0 mi Calm Calm - N/A   Clear
1:54 PM 66.0 °F - 45.0 °F 47% 29.99 in 10.0 mi Calm Calm - N/A   Clear
2:54 PM 68.0 °F - 44.1 °F 42% 29.96 in 10.0 mi Calm Calm - N/A   Clear
3:54 PM 68.0 °F - 46.0 °F 45% 29.95 in 10.0 mi Variable 3.5 mph - N/A   Clear
4:54 PM 68.0 °F - 46.9 °F 47% 29.94 in 10.0 mi Calm Calm - N/A   Clear
5:54 PM 66.9 °F - 48.0 °F 51% 29.95 in 10.0 mi East 5.8 mph - N/A   Clear
6:54 PM 57.9 °F - 50.0 °F 75% 29.96 in 10.0 mi Calm Calm - N/A   Clear
7:54 PM 53.1 °F - 48.9 °F 86% 29.98 in 10.0 mi Calm Calm - N/A   Clear
8:54 PM 52.0 °F - 48.9 °F 89% 29.99 in 10.0 mi Calm Calm - N/A   Clear
9:54 PM 48.2 °F - 48.2 °F 100% 29.99 in 10.0 mi Calm Calm - N/A   Clear
10:54 PM 48.0 °F - 46.9 °F 96% 29.99 in 10.0 mi NNW 3.5 mph - N/A   Clear
11:54 PM 48.0 °F - 46.9 °F 96% 29.99 in 10.0 mi Calm Calm - N/A   Clear